Temperature
22 22 21 21 21 20 20 20 19 19 19 19 18 18 18 18 18 18 18 18 18 18 18 18 18 18 18 18 18 18 18 17 17 17 17 17 17 17 17 17 17 17 17
22 22 21 21 21 20 20 20 19 19 19 19 19 18 18 18 18 18 18 18 18 18 18 18 18 18 18 18 18 18 17 17 17 17 17 17 17 17 17 17 17 17 16
23 22 21 21 21 21 20 20 20 19 19 19 19 18 18 18 18 18 18 18 18 18 18 18 18 18 18 18 17 17 18 18 17 17 17 17 17 16 16 16 16 16 16
23 22 22 21 21 21 21 20 20 20 19 19 19 19 19 19 18 18 18 18 18 18 18 18 18 18 18 18 17 17 17 17 17 17 17 17 17 16 16 16 16 16 16
23 23 22 22 22 21 21 21 20 20 20 19 19 19 19 19 19 18 18 18 18 18 18 18 18 18 18 18 17 17 17 17 17 17 17 17 17 17 16 16 16 16 16
24 23 23 22 22 21 21 21 21 20 20 19 19 19 19 19 19 18 18 18 18 18 18 18 18 18 18 18 17 17 17 17 17 17 17 17 17 16 16 16 16 15 15
24 23 23 22 22 22 22 21 21 21 20 20 20 20 19 19 19 19 18 18 18 18 18 18 18 18 17 17 17 17 17 17 17 17 17 17 17 16 16 16 15 15 15
24 24 24 23 23 22 22 22 21 21 21 20 20 20 20 19 19 19 18 18 18 18 18 18 18 18 17 17 17 17 17 17 17 17 16 16 16 16 16 16 16 15 15
25 25 24 24 24 23 23 22 22 21 21 21 20 20 20 19 19 19 18 18 18 18 18 18 18 18 17 17 17 17 17 17 17 17 17 17 16 16 16 16 16 16 15
24 24 24 24 24 23 23 22 22 22 21 21 21 20 20 20 19 19 19 19 18 18 18 18 18 17 17 17 17 17 17 17 17 17 16 16 16 16 16 16 15 15 15
24 24 24 24 24 23 23 23 22 22 22 21 21 20 20 20 19 19 19 19 19 18 18 18 17 17 17 17 17 17 17 17 17 16 16 16 16 16 16 15 15 15 15
24 24 24 24 24 23 23 23 22 22 22 21 21 21 20 20 20 19 19 19 19 18 18 18 17 17 17 17 17 16 16 16 16 16 16 16 16 16 15 15 15 15 15
24 24 24 24 24 23 23 23 23 22 22 21 21 21 20 20 20 20 19 19 19 18 18 18 17 17 17 17 16 16 16 16 16 16 16 16 16 15 15 15 15 15 15
24 24 24 24 23 23 23 23 23 22 22 22 21 21 20 20 20 20 20 19 19 19 18 18 17 17 17 17 16 16 16 16 16 16 15 15 15 15 15 15 15 15 14
24 24 24 24 24 23 23 23 23 22 22 22 21 21 21 20 20 20 20 19 19 18 18 18 17 17 17 17 16 16 16 16 15 15 15 15 15 15 14 14 14 14 14
23 23 23 23 23 23 23 23 23 22 22 22 21 21 21 20 20 20 19 19 19 18 18 18 17 17 17 16 16 16 16 15 15 15 15 15 14 14 14 14 14 14 13
22 22 22 23 23 23 23 23 23 22 22 22 21 21 21 20 20 20 19 19 19 18 18 18 17 17 17 16 16 16 15 15 15 15 14 14 14 14 14 13 13 13 13
22 22 22 23 23 23 22 22 22 22 22 21 21 21 20 20 20 20 19 19 18 18 18 17 17 17 16 16 16 16 15 15 15 14 14 14 14 14 13 13 13 13 13
22 22 23 23 23 22 22 22 22 22 21 21 21 21 20 20 20 20 19 19 18 18 17 17 17 16 16 16 15 15 15 15 14 14 14 14 14 13 13 13 13 13 13
22 22 22 22 22 22 21 21 21 21 21 21 20 20 20 20 20 19 19 19 18 17 17 17 16 16 16 15 15 15 15 14 14 14 14 13 13 13 13 13 13 13 13
22 22 22 22 21 21 21 21 21 21 21 20 20 20 19 19 19 19 18 18 17 17 17 16 16 16 15 15 15 15 14 14 14 14 13 13 13 13 13 12 12 12 12
21 21 21 21 21 21 21 20 20 20 20 19 19 19 19 18 18 18 18 17 17 17 16 16 15 15 15 15 14 14 14 14 14 14 13 13 13 13 12 12 12 12 12
20 20 20 20 20 20 20 20 20 19 19 19 19 18 18 18 18 17 17 17 16 16 16 16 15 15 15 14 14 14 14 13 13 13 13 13 12 12 12 12 12 12 12
19 19 19 19 19 19 19 19 19 19 19 18 18 18 17 17 17 17 17 16 16 16 16 15 15 15 15 14 14 13 13 13 13 12 12 12 12 12 12 12 12 11 11
18 18 18 18 18 18 18 19 19 19 18 18 18 17 17 17 16 16 16 16 16 15 15 15 15 15 14 14 14 13 13 13 13 12 12 12 12 12 12 12 11 11 11
18 18 18 18 18 18 18 18 18 18 18 17 17 17 17 16 16 16 15 15 15 15 14 14 14 14 14 13 13 13 13 12 12 12 12 12 12 12 11 11 11 11 11
Wind_Speed
9 9 9 9 8 7 6 6 6 5 4 3 3 2 1 1 1 1 4 5 5 5 4 3 2 2 2 2 2 2 2 1 1 2 2 3 2 1 1 1 1 1 4
9 9 9 9 9 8 7 6 6 5 5 4 3 3 3 2 2 1 2 4 5 5 4 3 3 2 2 2 2 2 2 1 2 3 2 1 3 3 2 1 2 2 2
14 12 11 9 9 9 8 8 6 6 5 4 3 2 2 1 1 1 1 2 4 4 4 4 3 2 3 2 2 2 3 2 1 2 3 2 2 1 2 1 1 1 1
12 12 12 11 10 10 9 7 7 6 5 5 5 5 4 3 3 2 2 2 2 3 4 4 4 3 2 3 3 2 2 3 2 1 1 2 4 2 0 2 1 1 1
13 13 13 13 11 10 9 7 7 6 5 5 6 5 3 3 2 2 2 2 1 2 3 4 3 3 3 3 3 2 2 3 3 2 1 1 1 2 2 1 1 1 1
13 12 12 11 9 9 9 8 7 6 6 6 6 6 6 5 4 3 2 1 0 1 2 3 2 2 2 2 2 2 3 2 2 2 2 2 2 2 2 2 2 1 1
13 13 12 12 11 11 10 9 9 7 6 6 6 6 6 6 6 4 3 2 1 1 1 2 2 1 2 2 2 2 2 2 2 2 2 2 2 2 2 3 2 1 0
13 14 14 14 13 12 11 10 9 8 7 7 6 5 5 4 4 4 4 3 3 2 2 2 2 1 1 2 2 2 1 1 1 1 1 1 2 2 3 4 4 2 0
13 14 14 14 13 12 12 11 11 9 8 8 7 6 5 5 5 4 3 2 2 2 2 2 2 1 2 2 2 1 1 1 1 1 1 1 1 2 2 3 4 4 2
11 12 12 13 12 12 11 10 11 10 9 8 7 6 5 5 5 4 4 3 3 2 3 2 2 2 2 2 2 1 1 1 1 0 1 0 1 1 1 2 2 2 3
9 10 10 11 11 10 10 10 10 9 8 9 7 6 5 5 5 5 4 4 3 3 3 3 3 3 2 2 2 2 1 1 1 1 1 1 1 1 1 2 2 2 3
8 9 10 10 10 11 11 11 10 10 9 8 8 7 6 6 6 5 4 4 4 3 3 3 3 3 2 2 3 2 2 2 1 1 1 0 1 1 1 2 3 2 3
7 7 7 8 9 10 10 11 11 11 9 9 8 7 6 6 6 6 5 5 4 3 3 3 3 3 3 3 2 2 2 2 2 1 1 1 1 1 1 2 3 2 3
8 8 8 7 7 7 8 9 10 10 10 9 9 8 8 8 7 6 5 5 5 4 4 3 3 3 2 2 2 2 2 2 1 1 1 1 2 2 2 2 2 3 3
7 8 8 7 7 6 7 8 9 9 10 10 10 10 8 8 7 6 5 5 5 5 4 4 2 2 2 2 2 2 2 2 1 1 1 1 2 2 3 3 3 4 3
6 6 6 7 7 7 7 8 8 9 10 10 9 8 8 8 7 7 6 5 5 4 4 4 3 2 1 2 3 3 2 2 2 2 1 1 1 1 2 5 5 6 6
5 6 7 7 8 8 8 9 9 9 9 9 9 9 9 8 8 8 7 6 5 5 4 4 4 3 2 3 4 4 3 2 2 2 1 1 0 1 1 3 3 3 5
4 5 5 5 5 5 5 6 8 8 8 8 8 9 9 8 8 7 7 6 5 5 5 5 4 3 2 4 4 3 3 2 2 2 3 2 1 1 2 3 2 1 1
3 4 5 5 4 4 5 5 6 7 7 7 7 8 9 9 8 8 8 6 6 5 5 5 5 4 2 3 4 4 2 2 2 1 2 3 2 2 4 4 3 1 1
2 2 2 3 4 4 5 6 6 6 7 7 7 6 7 8 9 8 7 5 6 6 5 4 4 4 3 3 4 4 3 2 1 1 1 2 3 3 5 4 3 2 2
3 2 3 4 4 4 6 6 5 6 7 6 6 6 6 7 7 6 5 5 5 5 5 4 4 4 4 4 4 4 3 4 3 2 2 2 4 4 4 4 3 4 3
3 3 3 2 2 3 5 5 4 5 4 5 5 5 5 6 6 6 5 5 6 6 5 4 3 2 3 4 5 5 5 5 4 4 3 3 5 4 4 3 3 3 2
2 2 2 1 0 1 4 5 4 3 4 5 5 4 4 4 4 5 5 5 5 5 5 4 4 3 2 3 5 5 5 5 4 3 5 5 5 3 2 3 4 3 2
1 1 1 1 1 2 3 4 4 4 5 5 5 5 5 4 3 4 4 4 4 4 4 4 4 3 3 3 3 3 3 3 3 2 2 4 4 2 2 2 2 2 3
1 0 1 2 3 3 2 3 4 5 6 6 5 5 4 4 4 3 2 3 3 5 6 5 5 5 4 5 6 5 4 4 4 3 1 1 0 1 1 2 2 2 2
1 1 1 2 2 2 2 2 4 6 6 5 5 4 4 4 4 3 2 3 1 2 5 6 5 4 5 6 8 7 7 6 6 4 2 3 3 4 4 4 3 3 4
Wind_Direction
174 163 160 156 149 146 145 148 148 160 150 143 141 141 155 164 168 177 171 170 166 164 157 149 149 144 145 161 154 142 126 123 120 90 35 11 17 356 213 168 147 173 198
167 164 164 163 161 161 160 158 162 167 167 171 168 165 160 172 176 171 155 168 167 163 158 147 154 156 144 135 145 138 139 166 137 131 109 14 1 7 6 76 132 143 134
175 170 167 172 169 170 171 171 173 173 177 172 149 130 100 79 82 133 185 186 170 167 162 164 158 164 159 167 182 167 159 178 217 156 144 153 213 309 351 14 92 120 126
176 173 171 174 180 181 175 169 170 173 176 166 156 156 160 175 196 182 183 193 184 173 169 165 165 176 174 175 192 167 169 163 190 223 171 171 165 166 254 339 7 38 107
179 177 177 180 183 180 174 170 167 170 171 166 166 161 166 178 172 153 155 180 201 181 170 164 162 172 179 183 181 165 164 170 179 188 177 149 151 152 162 220 308 9 21
181 176 178 173 174 175 171 168 168 176 176 173 170 168 172 169 155 151 154 167 177 175 167 154 156 168 174 178 183 177 168 174 173 182 176 168 170 183 166 183 205 210 345
178 174 174 173 175 174 174 172 174 182 181 176 176 173 172 167 167 169 173 169 169 190 199 174 174 181 183 181 175 165 175 174 172 191 205 197 200 179 161 157 173 168 185
184 179 180 179 179 177 176 174 180 186 184 180 181 176 168 164 167 171 172 174 180 193 189 164 172 178 171 159 151 156 185 161 176 202 195 195 209 180 162 164 156 148 138
186 183 181 182 179 179 180 180 183 187 186 183 176 173 169 163 167 168 164 166 175 178 167 157 160 168 157 147 145 146 183 170 188 208 194 192 203 178 175 166 164 162 179
183 180 182 182 179 180 181 179 181 186 186 181 178 180 178 171 163 156 164 169 176 171 157 155 160 163 153 140 127 120 138 136 210 186 148 187 205 182 169 170 168 162 165
172 176 180 181 178 175 176 175 174 176 178 177 175 167 166 161 153 155 161 159 153 153 159 161 152 146 141 133 130 136 126 118 87 96 129 164 166 163 167 156 154 152 143
166 170 176 177 176 179 179 177 177 177 180 177 169 168 165 161 160 163 168 157 150 153 156 145 136 138 134 131 137 150 135 135 133 122 106 225 137 141 165 160 163 166 157
158 155 160 171 178 181 179 178 180 180 176 169 167 168 169 168 169 169 167 160 155 148 141 139 140 140 133 135 146 151 149 148 153 140 132 157 128 143 159 153 157 161 146
164 164 167 177 181 182 175 175 180 178 174 168 167 173 178 177 174 169 164 161 157 149 139 136 140 143 143 148 158 156 152 150 149 157 143 134 149 171 164 144 142 137 130
166 169 173 179 179 179 183 176 176 177 174 171 175 184 184 176 169 167 168 163 158 156 149 141 136 137 150 166 167 171 165 161 163 146 134 138 147 170 172 159 153 144 143
164 168 176 182 184 182 185 181 179 179 174 176 183 181 177 174 175 175 171 162 158 157 151 154 154 155 168 154 147 146 141 151 154 151 148 112 74 127 171 161 153 155 159
164 168 179 187 192 190 186 185 182 174 173 177 179 178 176 179 182 181 173 171 172 167 165 166 160 165 178 156 149 147 141 146 154 153 155 148 56 78 125 146 145 164 171
152 178 186 187 193 192 184 176 166 162 166 174 178 180 178 181 179 176 180 181 175 175 181 182 178 174 188 167 158 152 140 144 150 157 163 155 162 138 136 133 119 138 213
185 192 186 179 171 170 168 152 160 162 165 179 189 186 181 179 178 182 186 183 177 184 186 182 176 177 192 178 169 150 135 136 139 154 157 160 165 179 149 131 128 103 327
161 159 141 131 143 161 154 146 162 169 182 190 192 182 178 178 182 184 183 182 178 183 179 180 182 180 188 191 173 155 145 154 171 177 183 180 172 167 156 151 152 173 240
132 135 138 142 161 164 154 155 165 188 197 187 174 171 182 183 182 179 178 175 174 171 173 176 186 184 188 190 185 172 162 176 182 193 217 232 189 174 173 171 183 207 205
92 121 124 138 153 149 148 161 186 200 177 163 165 172 181 180 177 172 174 173 171 172 178 179 188 202 197 189 194 188 183 182 179 198 213 222 205 200 196 199 211 198 154
60 67 105 116 19 161 156 174 204 186 168 159 168 171 171 168 165 170 176 177 177 179 185 182 188 198 192 202 201 197 200 192 190 203 201 208 212 217 231 227 215 185 161
57 62 98 156 240 231 183 183 179 163 160 163 168 169 167 167 162 166 172 177 181 184 187 188 192 195 194 199 206 207 201 194 196 216 228 221 222 230 249 246 229 205 196
268 202 193 213 227 221 204 180 168 158 165 169 169 169 168 162 156 155 163 177 192 196 189 194 190 188 208 220 198 188 192 192 195 168 133 120 198 242 256 256 256 238 214
274 257 246 219 215 199 208 205 168 158 161 168 172 172 171 159 156 146 97 46 107 176 182 185 181 200 204 186 181 185 189 189 174 155 176 209 220 226 233 235 242 237 226
Height
1536 1538 1540 1541 1542 1542 1543 1543 1543 1544 1544 1545 1545 1546 1546 1547 1548 1548 1548 1549 1550 1550 1551 1551 1551 1552 1553 1553 1553 1554 1554 1555 1556 1556 1556 1557 1557 1557 1557 1557 1557 1557 1558
1536 1538 1539 1540 1541 1541 1542 1542 1543 1543 1544 1545 1545 1546 1546 1546 1547 1547 1548 1548 1549 1549 1550 1550 1551 1551 1552 1552 1552 1553 1553 1554 1554 1555 1555 1556 1557 1556 1556 1556 1556 1556 1556
1533 1535 1537 1538 1540 1540 1541 1542 1542 1543 1543 1544 1545 1545 1545 1545 1546 1546 1547 1547 1548 1548 1549 1549 1550 1550 1551 1551 1551 1552 1552 1552 1553 1554 1555 1555 1554 1555 1555 1555 1554 1555 1555
1531 1533 1535 1537 1538 1540 1540 1541 1542 1542 1543 1543 1544 1544 1544 1544 1545 1546 1546 1547 1547 1548 1548 1549 1549 1549 1549 1550 1550 1550 1551 1551 1551 1552 1553 1554 1554 1554 1554 1554 1554 1553 1553
1528 1531 1533 1534 1537 1539 1540 1541 1542 1542 1542 1543 1543 1544 1544 1544 1545 1545 1546 1546 1547 1547 1548 1548 1548 1548 1548 1548 1548 1549 1549 1549 1550 1550 1551 1551 1552 1552 1552 1552 1552 1552 1552
1526 1529 1531 1533 1535 1537 1539 1540 1541 1541 1542 1542 1543 1543 1543 1544 1544 1545 1545 1546 1546 1546 1547 1547 1547 1547 1547 1547 1547 1547 1547 1547 1548 1548 1549 1549 1549 1549 1550 1550 1550 1550 1551
1524 1526 1529 1531 1533 1535 1537 1538 1540 1540 1541 1542 1542 1542 1543 1543 1544 1544 1545 1545 1545 1546 1546 1546 1546 1545 1546 1545 1545 1546 1545 1546 1546 1546 1547 1547 1547 1548 1548 1548 1548 1548 1549
1521 1523 1526 1529 1531 1533 1535 1537 1538 1539 1540 1541 1542 1542 1543 1543 1543 1544 1544 1545 1545 1545 1545 1545 1544 1544 1544 1544 1544 1544 1544 1544 1545 1545 1545 1545 1545 1545 1546 1546 1546 1547 1547
1518 1521 1524 1526 1528 1531 1533 1534 1536 1537 1539 1540 1541 1542 1542 1542 1543 1543 1543 1544 1544 1544 1544 1543 1543 1543 1543 1543 1543 1542 1543 1543 1543 1543 1543 1542 1542 1543 1543 1544 1544 1545 1544
1517 1520 1522 1524 1526 1529 1531 1533 1534 1536 1537 1539 1540 1541 1541 1542 1542 1542 1543 1543 1543 1543 1543 1542 1541 1541 1541 1541 1541 1541 1541 1541 1541 1541 1540 1540 1540 1541 1541 1542 1542 1542 1543
1515 1518 1521 1523 1525 1527 1529 1531 1532 1534 1536 1537 1538 1539 1540 1541 1541 1542 1542 1542 1542 1542 1541 1541 1540 1539 1539 1539 1539 1539 1539 1539 1539 1539 1538 1538 1538 1538 1539 1539 1540 1540 1540
1514 1516 1518 1521 1523 1525 1527 1529 1531 1532 1534 1536 1537 1538 1539 1540 1540 1540 1541 1541 1541 1541 1541 1540 1539 1539 1538 1538 1538 1538 1538 1538 1537 1537 1537 1536 1536 1536 1536 1537 1537 1537 1538
1512 1514 1517 1519 1521 1523 1525 1527 1529 1530 1532 1534 1536 1537 1538 1538 1539 1539 1540 1540 1540 1540 1539 1539 1539 1538 1538 1537 1537 1537 1537 1536 1536 1536 1535 1535 1534 1534 1534 1534 1534 1535 1536
1511 1513 1515 1517 1519 1521 1523 1525 1527 1529 1530 1532 1533 1535 1536 1537 1538 1538 1538 1538 1538 1538 1538 1537 1537 1537 1537 1536 1536 1536 1535 1535 1534 1534 1533 1533 1533 1533 1533 1533 1532 1533 1533
1509 1510 1512 1515 1517 1519 1521 1522 1524 1526 1528 1530 1531 1532 1534 1535 1536 1536 1536 1536 1536 1536 1536 1536 1536 1536 1535 1535 1535 1534 1534 1533 1533 1532 1532 1532 1532 1531 1531 1531 1531 1531 1531
1508 1509 1511 1512 1514 1516 1518 1519 1521 1523 1525 1527 1528 1530 1532 1533 1533 1534 1534 1534 1534 1534 1534 1534 1534 1534 1534 1533 1533 1533 1532 1532 1531 1531 1531 1531 1531 1530 1530 1530 1530 1530 1530
1508 1508 1510 1511 1512 1513 1514 1516 1518 1520 1522 1523 1525 1527 1528 1529 1530 1531 1532 1532 1532 1532 1532 1532 1532 1532 1532 1531 1531 1531 1531 1530 1529 1529 1529 1529 1529 1529 1529 1529 1528 1528 1529
1506 1507 1508 1508 1509 1510 1512 1513 1515 1517 1518 1520 1521 1523 1525 1526 1527 1528 1528 1529 1529 1529 1529 1529 1529 1529 1529 1529 1529 1529 1529 1529 1528 1528 1527 1527 1527 1527 1527 1527 1527 1527 1527
1504 1505 1505 1506 1507 1508 1509 1511 1512 1513 1515 1517 1518 1519 1521 1522 1523 1524 1525 1525 1526 1526 1526 1526 1526 1526 1526 1527 1527 1527 1527 1527 1526 1526 1526 1525 1525 1525 1525 1526 1525 1525 1525
1503 1503 1503 1504 1504 1506 1508 1509 1509 1511 1512 1513 1514 1516 1517 1518 1519 1520 1521 1522 1522 1523 1523 1523 1523 1523 1524 1524 1524 1525 1525 1524 1524 1524 1524 1523 1523 1523 1524 1524 1523 1523 1523
1500 1500 1501 1502 1502 1503 1505 1505 1506 1507 1509 1511 1512 1512 1514 1515 1515 1516 1518 1518 1519 1519 1519 1519 1520 1520 1520 1521 1521 1522 1522 1522 1521 1521 1521 1521 1521 1521 1521 1522 1522 1522 1522
1497 1497 1498 1498 1499 1500 1501 1502 1503 1504 1506 1507 1508 1509 1510 1511 1512 1513 1513 1514 1515 1515 1515 1515 1516 1517 1517 1517 1518 1519 1519 1519 1519 1519 1519 1519 1519 1519 1519 1519 1520 1520 1520
1495 1496 1496 1496 1497 1498 1499 1499 1500 1501 1502 1503 1505 1506 1506 1507 1508 1509 1510 1511 1511 1511 1511 1512 1512 1513 1514 1514 1515 1515 1516 1516 1516 1516 1517 1517 1517 1517 1517 1517 1517 1518 1517
1494 1494 1494 1494 1494 1496 1496 1497 1497 1498 1499 1500 1501 1502 1503 1504 1504 1505 1506 1506 1507 1507 1508 1508 1508 1509 1510 1510 1511 1512 1512 1513 1514 1514 1514 1515 1515 1515 1514 1514 1515 1515 1515
1493 1492 1491 1491 1492 1493 1494 1494 1495 1495 1496 1496 1497 1498 1499 1500 1500 1501 1502 1503 1504 1505 1505 1505 1506 1506 1506 1507 1509 1509 1509 1510 1511 1511 1511 1511 1512 1511 1511 1511 1512 1512 1511
1490 1489 1489 1488 1489 1489 1490 1490 1491 1492 1492 1492 1493 1494 1495 1495 1496 1497 1498 1499 1500 1501 1502 1502 1503 1503 1505 1505 1505 1506 1507 1507 1507 1507 1507 1507 1508 1508 1508 1508 1508 1508 1508